Regional Weather Roundup
Issued by NWS

Home | Current Version | Previous Version | Graphics & Text | Print | Product List | Glossary On
Versions: 1 2 3 4 5 6 7 8 9 10 11 12 13 14 15 16 17 18 19 20 21 22 23 24 25 26 27 28 29 30 31 32 33 34 35 36 37 38 39 40 41 42 43 44 45 46 47 48 49 50
000
ASUS44 KMEG 260900
RWRTN
TENNESSEE HOURLY STATE WEATHER ROUNDUP
NATIONAL WEATHER SERVICE MEMPHIS TN
400 AM CDT FRI AUG 26 2016

TNZ002-004-019-021-049-052-054-088>092-261000-
WEST TENNESSEE

CITY           SKY/WX    TMP DP  RH WIND       PRES   REMARKS
MEMPHIS INTL   FAIR      77  73  87 CALM      30.05S
NWS MEMPHIS      N/A     76 N/A N/A MISG        N/A
JACKSON        FAIR      74  73  97 CALM      30.06F
DYERSBURG      FAIR      77  72  83 MISG      30.05S
UNION CITY     CLEAR     73  73 100 NE3       30.06S
PARIS          CLEAR     72  72 100 CALM      30.09S
LEXINGTON      CLEAR     73  73 100 CALM      30.07S
$$

TNZ008-025-027-028-033-062-065-066-261000-
NORTH MIDDLE TENNESSEE

CITY           SKY/WX    TMP DP  RH WIND       PRES   REMARKS
NASHVILLE      FAIR      75  73  93 CALM      30.10S
CLARKSVILLE    LGT RAIN  72  71  97 CALM      30.09F VSB 3/4
COOKEVILLE     CLEAR     72  72 100 CALM      30.12F
CROSSVILLE     FAIR      68  68 100 CALM      30.19S
$$

TNZ061-075-076-078-094-096-097-261000-
SOUTH MIDDLE TENNESSEE

CITY           SKY/WX    TMP DP  RH WIND       PRES   REMARKS
TULLAHOMA      CLEAR     72  70  94 CALM      30.13F
WINCHESTER     CLEAR     72  72 100 CALM      30.12S
COLUMBIA       CLEAR    N/A N/A N/A NE3       30.08S
SHELBYVILLE    CLEAR     73  73 100 CALM      30.11F
$$

TNZ017-018-042-046-047-261000-
NORTHEAST TENNESSEE

CITY           SKY/WX    TMP DP  RH WIND       PRES   REMARKS
TRI CITIES     FAIR      68  67  96 CALM      30.18S FOG
$$

TNZ012-013-036-069-073-074-261000-
CENTRAL EAST TENNESSEE

CITY           SKY/WX    TMP DP  RH WIND       PRES   REMARKS
KNOXVILLE      FAIR      73  71  93 CALM      30.12F
OAK RIDGE      MOCLDY    73  71  93 CALM      30.15S FOG
GATLINBURG     CLEAR     70  66  88 CALM      30.14S
$$

TNZ083-085-099-261000-
SOUTHEAST TENNESSEE

CITY           SKY/WX    TMP DP  RH WIND       PRES   REMARKS
CHATTANOOGA    FAIR      76  72  87 N3        30.11F
$$

SKY/WX REPORTED AS FAIR MEANS FEW OR NO CLOUDS BELOW
12 THOUSAND FEET.





USA.gov is the U.S. government's official web portal to all federal, state and local government web resources and services.